Vorticity
11 13 12 9 7 7 6 6 5 5 6 8 10 8 8 13 12 10 10 9 7 6 4 5 5 6 8 8 9 9 9 10 9 9 9 8 8 8 7 8 10 10
8 10 11 10 9 7 6 6 6 6 9 10 8 9 11 12 10 9 10 8 7 6 5 5 6 7 8 8 8 8 9 9 9 8 8 7 6 6 9 10 10 10
8 8 9 9 9 9 8 7 7 9 10 8 7 12 13 10 9 10 9 7 6 5 5 5 5 5 6 7 7 9 9 9 8 8 8 8 7 8 11 10 8 9
9 10 9 11 11 10 9 7 9 11 9 6 7 11 11 8 9 10 8 6 5 4 4 4 4 5 6 7 8 8 7 7 7 8 9 9 9 11 12 9 8 9
9 9 8 11 10 9 10 8 10 12 8 5 6 8 9 8 8 8 7 6 6 5 5 4 4 5 7 7 6 6 5 5 6 7 9 9 10 12 11 7 7 7
7 4 5 8 8 10 13 10 8 10 7 5 5 6 7 7 6 7 7 7 7 6 3 1 2 3 5 4 5 6 5 5 6 5 6 7 8 9 8 6 6 5
8 6 5 5 7 11 13 10 8 8 8 6 4 5 6 7 6 7 8 8 7 4 1 2 3 4 5 6 6 6 4 4 4 5 6 7 7 7 7 7 8 8
11 12 8 2 3 10 12 10 6 6 9 8 4 2 4 6 7 7 8 9 8 4 2 3 4 4 4 5 6 5 5 5 5 6 5 6 7 7 8 9 8 8
8 6 4 0 0 5 11 11 8 8 11 8 2 -0 3 6 7 7 8 10 8 5 3 3 3 4 3 5 7 7 9 9 7 6 5 5 8 8 9 10 8 8
7 2 0 0 1 4 9 12 9 8 8 7 4 0 0 4 6 8 10 11 10 6 4 3 3 5 7 8 9 8 8 8 7 7 6 8 9 9 8 7 7 8
10 5 1 2 3 5 10 11 5 2 5 7 5 1 0 4 7 10 10 10 8 5 3 3 4 5 7 7 8 9 8 7 6 7 8 10 11 9 7 6 8 9
8 4 2 3 5 8 12 11 1 -1 5 7 4 2 4 6 7 8 9 7 5 3 2 4 5 5 5 6 8 8 7 6 5 6 8 10 11 10 9 9 9 9
7 5 2 3 10 12 11 9 2 -0 5 7 6 5 5 7 9 8 6 5 5 4 3 6 7 5 4 8 9 6 5 7 9 9 8 9 10 10 10 10 10 12
16 11 -2 -2 7 9 8 8 3 0 6 8 6 6 7 9 8 4 3 7 7 5 6 7 7 4 4 7 7 6 8 10 11 11 9 9 11 11 11 14 16 21
20 12 -2 -3 2 4 10 11 2 -2 5 8 7 9 10 8 5 4 6 9 9 7 7 7 5 5 5 5 4 6 8 9 9 8 10 12 12 13 15 17 20 23
13 8 7 8 4 3 10 10 2 -3 -0 6 10 9 7 7 6 6 8 9 10 10 8 5 4 6 7 5 6 7 8 9 10 10 13 15 13 14 17 13 12 17
9 8 7 5 2 6 15 16 7 -4 -5 5 11 6 5 7 6 6 8 9 9 9 6 3 4 7 8 6 7 8 9 10 11 13 14 13 11 14 15 7 5 15
6 11 6 0 2 11 22 23 10 -5 -5 6 9 5 4 7 8 8 8 8 9 8 6 4 6 8 9 10 10 10 10 11 12 13 12 11 11 14 14 7 4 13
10 11 1 -1 7 12 15 16 8 -2 -3 5 9 6 4 7 8 6 9 10 4 -1 1 6 10 11 10 10 9 10 11 11 12 12 10 11 12 13 14 13 8 10
19 12 -2 -2 6 7 6 11 10 4 1 5 8 7 5 7 7 7 11 4 -5 7 23 21 11 9 9 7 5 8 12 14 13 11 10 11 11 11 13 15 13 13
19 13 9 8 4 0 3 10 10 5 3 5 8 9 8 6 6 11 10 -3 4 31 29 -0 -11 1 9 8 7 11 15 15 13 11 10 10 10 10 12 12 13 16
11 13 20 5 -10 -5 6 10 8 5 4 6 11 13 7 2 9 15 6 -3 9 16 -7 -24 -11 6 10 10 10 13 15 13 12 11 10 10 10 10 11 11 11 14
7 18 22 -3 -16 2 15 12 8 5 4 9 17 13 -4 -6 9 12 1 -4 0 -1 -3 5 8 3 5 11 11 12 14 12 11 12 10 11 12 11 11 10 10 12
10 12 10 -7 -7 13 20 14 7 2 1 11 23 14 -11 -12 6 9 3 3 0 3 16 17 1 -5 7 12 8 11 15 11 11 12 11 13 12 10 11 10 10 13
6 6 7 0 3 15 17 11 3 -1 0 7 17 13 -4 -4 9 7 3 5 2 4 11 8 -1 3 10 9 10 14 14 10 12 13 12 13 13 11 12 9 10 14
4 12 14 8 8 12 12 6 0 1 3 3 8 10 2 2 6 2 1 4 5 7 9 8 7 8 9 11 14 13 11 12 14 13 12 14 14 13 12 10 11 14
Height
5902 5901 5900 5899 5897 5896 5896 5895 5893 5892 5890 5889 5888 5887 5885 5884 5882 5880 5878 5877 5876 5875 5874 5872 5870 5868 5866 5864 5861 5859 5857 5855 5853 5851 5850 5848 5846 5844 5842 5840 5837 5835
5899 5898 5897 5896 5895 5893 5892 5891 5890 5888 5887 5886 5885 5884 5882 5880 5878 5876 5875 5874 5873 5872 5870 5869 5867 5865 5863 5860 5858 5856 5854 5852 5850 5848 5846 5844 5842 5840 5838 5835 5833 5830
5895 5895 5894 5893 5892 5891 5890 5888 5886 5885 5884 5883 5882 5880 5879 5877 5875 5873 5871 5870 5869 5867 5866 5865 5863 5862 5859 5857 5855 5853 5851 5848 5846 5844 5842 5840 5837 5835 5833 5830 5828 5825
5892 5891 5890 5890 5889 5888 5887 5885 5883 5882 5880 5879 5878 5877 5875 5873 5871 5870 5868 5867 5865 5864 5863 5861 5860 5858 5856 5853 5851 5849 5846 5844 5841 5839 5837 5835 5832 5830 5828 5825 5823 5820
5889 5888 5887 5886 5886 5885 5883 5882 5880 5878 5877 5876 5875 5873 5871 5870 5868 5867 5865 5864 5862 5861 5859 5858 5856 5854 5852 5849 5847 5844 5842 5839 5837 5834 5832 5830 5827 5825 5823 5820 5818 5815
5885 5884 5884 5883 5882 5882 5880 5878 5876 5875 5874 5872 5871 5869 5867 5866 5865 5863 5862 5860 5859 5857 5855 5854 5852 5850 5847 5845 5843 5840 5837 5835 5832 5829 5827 5825 5822 5819 5817 5814 5812 5809
5881 5881 5880 5879 5878 5878 5877 5875 5873 5872 5870 5868 5866 5865 5863 5862 5861 5859 5858 5857 5855 5853 5851 5849 5847 5845 5843 5841 5838 5836 5833 5830 5828 5825 5822 5819 5816 5814 5811 5808 5806 5804
5877 5877 5876 5875 5874 5874 5873 5871 5870 5868 5866 5864 5863 5861 5859 5858 5857 5855 5854 5853 5851 5849 5847 5845 5843 5841 5839 5837 5834 5830 5827 5825 5822 5820 5817 5814 5811 5808 5806 5803 5801 5798
5874 5873 5872 5871 5871 5870 5869 5868 5866 5865 5863 5861 5859 5857 5856 5854 5853 5852 5851 5849 5848 5845 5843 5841 5839 5837 5834 5831 5828 5825 5822 5819 5817 5814 5811 5809 5806 5803 5801 5798 5796 5793
5871 5869 5867 5866 5866 5866 5865 5864 5862 5861 5859 5857 5855 5854 5852 5851 5850 5848 5847 5846 5844 5842 5840 5837 5835 5832 5829 5826 5823 5820 5817 5815 5812 5809 5806 5803 5801 5798 5795 5793 5791 5788
5868 5866 5864 5862 5862 5862 5861 5859 5858 5856 5855 5854 5852 5851 5849 5847 5846 5845 5843 5841 5839 5837 5835 5833 5830 5828 5825 5822 5819 5816 5814 5811 5808 5804 5801 5798 5795 5792 5789 5787 5785 5782
5864 5862 5860 5859 5859 5858 5856 5855 5853 5852 5851 5850 5849 5848 5846 5844 5842 5841 5839 5837 5835 5833 5831 5828 5826 5823 5820 5817 5815 5812 5810 5807 5803 5799 5796 5793 5790 5787 5784 5781 5779 5777
5859 5857 5855 5854 5854 5853 5852 5850 5849 5849 5848 5847 5845 5844 5842 5840 5838 5836 5835 5833 5831 5829 5826 5823 5821 5818 5815 5812 5810 5807 5804 5802 5799 5795 5791 5788 5785 5782 5779 5777 5774 5771
5855 5853 5851 5850 5849 5848 5848 5846 5845 5845 5844 5842 5841 5839 5837 5835 5833 5832 5830 5828 5826 5824 5821 5818 5816 5813 5810 5808 5805 5802 5799 5796 5794 5790 5787 5783 5780 5778 5775 5772 5770 5767
5850 5849 5847 5846 5845 5844 5843 5842 5841 5841 5839 5838 5837 5834 5832 5830 5829 5827 5825 5823 5821 5818 5816 5813 5811 5808 5806 5803 5800 5797 5794 5791 5789 5785 5782 5779 5776 5773 5770 5768 5765 5762
5845 5844 5842 5841 5841 5840 5839 5838 5837 5836 5835 5833 5831 5829 5827 5826 5824 5822 5820 5817 5815 5813 5811 5809 5806 5804 5801 5798 5795 5792 5789 5787 5784 5781 5778 5775 5772 5769 5766 5764 5761 5758
5838 5838 5838 5837 5837 5836 5835 5834 5833 5832 5830 5829 5827 5825 5823 5821 5819 5817 5815 5813 5810 5808 5806 5804 5802 5799 5796 5793 5790 5787 5785 5782 5780 5776 5773 5770 5767 5765 5762 5760 5757 5754
5833 5834 5834 5833 5833 5833 5831 5830 5829 5827 5826 5825 5823 5821 5819 5817 5815 5812 5810 5808 5806 5804 5801 5799 5797 5794 5791 5788 5785 5782 5780 5777 5775 5772 5768 5765 5763 5760 5758 5755 5753 5751
5833 5831 5830 5829 5829 5829 5827 5826 5824 5823 5822 5820 5818 5817 5814 5812 5810 5807 5805 5803 5801 5799 5797 5794 5792 5789 5786 5783 5780 5778 5775 5772 5770 5766 5763 5761 5758 5756 5754 5751 5749 5746
5830 5827 5826 5825 5824 5824 5822 5821 5819 5819 5818 5816 5814 5812 5810 5808 5805 5802 5801 5799 5797 5794 5791 5789 5787 5785 5782 5779 5776 5774 5771 5768 5764 5761 5758 5756 5754 5752 5749 5746 5744 5741
5824 5822 5821 5820 5819 5819 5817 5816 5815 5815 5813 5811 5809 5807 5805 5803 5800 5798 5797 5795 5793 5789 5785 5782 5781 5780 5777 5775 5772 5770 5767 5763 5760 5756 5753 5751 5748 5746 5744 5741 5739 5736
5817 5817 5815 5815 5814 5813 5812 5812 5811 5811 5808 5806 5804 5802 5801 5798 5795 5793 5793 5792 5790 5786 5782 5778 5777 5775 5772 5769 5767 5764 5761 5758 5754 5751 5749 5746 5743 5741 5738 5736 5733 5731
5812 5812 5811 5810 5809 5809 5808 5808 5807 5806 5803 5801 5799 5798 5796 5794 5791 5790 5789 5788 5786 5784 5780 5776 5773 5770 5766 5763 5761 5758 5755 5751 5749 5746 5744 5742 5739 5736 5733 5730 5728 5725
5807 5806 5806 5805 5804 5804 5803 5803 5802 5800 5798 5797 5795 5794 5792 5790 5788 5785 5784 5783 5781 5779 5774 5770 5766 5763 5760 5758 5755 5752 5748 5745 5743 5741 5739 5737 5734 5731 5728 5725 5722 5720
5803 5800 5800 5799 5798 5798 5798 5797 5796 5795 5794 5792 5791 5790 5788 5786 5783 5780 5778 5776 5775 5771 5767 5763 5760 5758 5755 5753 5750 5746 5742 5740 5738 5736 5733 5731 5729 5726 5723 5720 5717 5714
5798 5796 5795 5793 5791 5791 5792 5792 5791 5790 5789 5788 5787 5786 5784 5781 5778 5775 5772 5770 5768 5765 5761 5758 5755 5752 5750 5747 5744 5740 5737 5734 5732 5730 5728 5725 5723 5721 5718 5715 5712 5709